EW5980 Weather Reports


Display with metric or nautical units.
time (UTC)temp
F
wind
direction
speed
MPH
gust
MPH
rain 1hr
in
rain 24hr
in
rain mn
in
humidity
%
barometer
mb
20260506134543 71 0.0 0.0 0.00 0.00 0.00 12 1013.2
20260506133048 71 0.0 0.0 0.00 0.00 0.00 16 1013.0
20260506131549 71 0.0 0.0 0.00 0.00 0.00 20 1013.1
20260506130052 72 0.0 0.0 0.00 0.00 0.00 23 1013.4
20260506124543 72 0.0 0.0 0.00 0.00 0.00 25 1013.2
20260506123042 71 0.0 0.0 0.00 0.00 0.00 25 1012.9
20260506121541 71 0.0 0.0 0.00 0.00 0.00 25 1012.9
20260506120046 71 0.0 0.0 0.00 0.00 0.00 26 1012.5
20260506114545 71 0.0 0.0 0.00 0.00 0.00 28 1012.3
20260506113043 71 0.0 0.0 0.00 0.00 0.00 30 1012.2
20260506111542 71 0.0 0.0 0.00 0.00 0.00 32 1011.7
20260506110042 71 0.0 0.0 0.00 0.00 0.00 35 1011.5
20260506104546 71 0.0 0.0 0.00 0.00 0.00 35 1011.1
20260506103043 71 0.0 0.0 0.00 0.00 0.00 36 1010.5
20260506101545 71 0.0 0.0 0.00 0.00 0.00 37 1010.7
20260506100042 71 0.0 0.0 0.00 0.00 0.00 39 1010.9
20260506094551 72 0.0 0.0 0.00 0.00 0.00 40 1010.9
20260506093041 72 0.0 0.0 0.00 0.00 0.00 39 1010.9
20260506091546 71 0.0 0.0 0.00 0.00 0.00 37 1011.3
20260506090045 71 0.0 0.0 0.00 0.00 0.00 32 1011.3
20260506084546 71 0.0 0.0 0.00 0.00 0.00 30 1011.2
20260506083042 71 0.0 0.0 0.00 0.00 0.00 30 1010.9
20260506081544 71 0.0 0.0 0.00 0.00 0.00 30 1010.5
20260506073045 71 0.0 0.0 0.00 0.00 0.00 35 1011.1
20260506071546 71 0.0 0.0 0.00 0.00 0.00 38 1010.7
20260506061542 72 0.0 0.0 0.00 0.00 0.00 49 1010.7
20260506044544 74 0.0 0.0 0.00 0.00 0.00 65 1011.1
20260506043043 74 0.0 0.0 0.00 0.00 0.00 68 1011.0
20260506041541 74 0.0 0.0 0.00 0.00 0.00 70 1011.0
20260506040042 75 0.0 0.0 0.00 0.00 0.00 71 1011.0
20260506034544 75 0.0 0.0 0.00 0.00 0.00 72 1011.1
20260506033046 75 0.0 0.0 0.00 0.00 0.00 72 1011.0
20260506031549 75 0.0 0.0 0.00 0.00 0.00 72 1011.1
20260506030044 75 0.0 0.0 0.00 0.00 0.00 72 1010.8
20260506024550 75 0.0 0.0 0.00 0.00 0.00 72 1010.7
20260506023040 76 0.0 0.0 0.00 0.00 0.00 72 1010.6
20260506021537 76 0.0 0.0 0.00 0.00 0.00 72 1010.6
20260506020042 76 0.0 0.0 0.00 0.00 0.00 72 1010.6
20260506014545 76 0.0 0.0 0.00 0.00 0.00 72 1010.4
20260506013042 76 0.0 0.0 0.00 0.00 0.00 72 1010.2
20260506011540 76 0.0 0.0 0.00 0.00 0.00 72 1010.0
20260506010040 76 0.0 0.0 0.00 0.00 0.00 72 1010.0
20260506004546 77 0.0 0.0 0.00 0.00 0.00 72 1009.7
20260506003045 77 0.0 0.0 0.00 0.00 0.00 71 1009.7
20260506001542 77 0.0 0.0 0.00 0.00 0.00 71 1009.7
20260506000041 77 0.0 0.0 0.00 0.00 0.00 71 1009.7
20260505234548 78 0.0 0.0 0.00 0.00 0.00 70 1009.8
20260505233045 78 0.0 0.0 0.00 0.00 0.00 70 1009.9
20260505231551 78 0.0 0.0 0.00 0.00 0.00 70 1009.9
20260505230055 78 0.0 0.0 0.00 0.00 0.00 69 1009.9
20260505224543 78 0.0 0.0 0.00 0.00 0.00 69 1009.8
20260505223050 78 0.0 0.0 0.00 0.00 0.00 69 1009.9
20260505221542 78 0.0 0.0 0.00 0.00 0.00 69 1009.9
20260505220039 78 0.0 0.0 0.00 0.00 0.00 69 1010.3
20260505214546 77 0.0 0.0 0.00 0.00 0.00 69 1010.4
20260505213052 77 0.0 0.0 0.00 0.00 0.00 69 1010.8
20260505211548 78 0.0 0.0 0.00 0.00 0.00 70 1010.7
20260505210043 77 0.0 0.0 0.00 0.00 0.00 69 1010.9
20260505204543 77 0.0 0.0 0.00 0.00 0.00 69 1010.8
20260505203047 77 0.0 0.0 0.00 0.00 0.00 69 1010.8
20260505201547 77 0.0 0.0 0.00 0.00 0.00 69 1011.1
20260505200044 78 0.0 0.0 0.00 0.00 0.00 68 1011.2
20260505194545 78 0.0 0.0 0.00 0.00 0.00 67 1011.2
20260505193040 78 0.0 0.0 0.00 0.00 0.00 66 1011.2
20260505191606 78 0.0 0.0 0.00 0.00 0.00 65 1011.3
20260505190042 78 0.0 0.0 0.00 0.00 0.00 65 1011.6
20260505184543 78 0.0 0.0 0.00 0.00 0.00 63 1011.7
20260505183042 78 0.0 0.0 0.00 0.00 0.00 65 1011.8
20260505181548 78 0.0 0.0 0.00 0.00 0.00 63 1011.9
20260505180059 78 0.0 0.0 0.00 0.00 0.00 64 1011.9
20260505174552 77 0.0 0.0 0.00 0.00 0.00 65 1012.0
20260505173046 77 0.0 0.0 0.00 0.00 0.00 64 1012.0
20260505171547 76 0.0 0.0 0.00 0.00 0.00 65 1012.1
20260505170043 76 0.0 0.0 0.00 0.00 0.00 65 1012.4
20260505164542 75 0.0 0.0 0.00 0.00 0.00 67 1012.4
20260505163046 75 0.0 0.0 0.00 0.00 0.00 67 1012.6
20260505161552 75 0.0 0.0 0.00 0.00 0.00 66 1012.5
20260505153040 74 0.0 0.0 0.00 0.00 0.00 68 1012.6
20260505151539 73 0.0 0.0 0.00 0.00 0.00 69 1012.6